Location: Arcueil
(48.7999°N, 2.3326°E)
Time: 00:50:25
(UTC+00:00)

ISS - Visible Passes

Search period start: 05 March 2024 00:00
Search period end: 15 March 2024 00:00
Orbit: 414 x 422 km, 51.6° (Epoch: 04 March)

Date Brightness Start Highest point End Pass type
(mag) Time Alt. Az. Time Alt. Az. Time Alt. Az.
05 Mar -3.5 04:23:46 62° SSE 04:23:46 62° SSE 04:26:45 10° ESE visible
06 Mar -1.0 03:37:55 16° ESE 03:37:55 16° ESE 03:38:43 10° ESE visible
06 Mar -2.4 05:10:52 21° WSW 05:11:50 23° SW 05:14:35 10° SSE visible
07 Mar -2.2 04:25:08 25° S 04:25:08 25° S 04:26:59 10° SSE visible
08 Mar -1.4 05:12:29 10° SW 05:12:29 10° SW 05:12:37 10° SW visible
13 Mar -1.7 19:30:29 10° SSW 19:31:38 16° S 19:31:38 16° S visible
14 Mar -1.8 18:43:11 10° S 18:44:58 14° SE 18:46:05 12° ESE visible
14 Mar -1.5 20:17:54 10° SW 20:19:02 20° SW 20:19:02 20° SW visible
